IRIDIUM 143 (43258 NORAD) Tracking and Keplerian Element Data

This shows tracking and keplerian element data for the satellite.

Feedback or suggestion? Click here.




ElementValue
Catalog43258
NameIRIDIUM 143
Epoch Orbit418
Epoch Day118.47859904
Epoch Year2018
RAAN92.3186
Inclination86.395
Eccentricity0.0001503
Argument of Perigee108.0797
Mean Anonmoly252.0562
Mean Motion14.34215986
Decay Rate4.1E-07
L11 43258U 18030K 18118.47859904 .00000041 00000-0 75562-5 0 9994
L22 43258 86.3950 92.3186 0001503 108.0797 252.0562 14.34215986 4183

Live tracking and technical data element details for IRIDIUM 143 (NORAD 43258). IRIDIUM 143 can be tracked NOW for your location showing map with azimuth and elevation plus other details from your city location.

Track the satellite on the map from your city or location and see movement details for azimuth, elevation, latitude, longitude, range, height, and movement on the map or in text.







IsCatalogInMostPopularTable: catalog: 43258, numindb: 38
Update: records affected: 1



GetName: 43258 IRIDIUM 143

Hit Count: updated at: Fri, 20 Jul 2018 06:52:53 GMT